CW9560 Weather Reports


Display with metric or nautical units.
time (UTC)temp
F
wind
direction
speed
MPH
gust
MPH
rain 1hr
in
rain 24hr
in
rain mn
in
humidity
%
barometer
mb
20180925144508 52 263 7.0 14.0 0.01 0.01 0.01 77 1026.0
20180925144008 52 247 7.0 14.0 0.01 0.01 0.01 77 1026.1
20180925143507 53 250 7.0 14.0 0.01 0.01 0.01 77 1026.2
20180925143009 53 244 6.0 18.0 0.00 0.00 0.00 76 1026.3
20180925142508 53 245 8.0 18.0 0.00 0.00 0.00 76 1026.3
20180925142009 53 258 6.0 18.0 0.00 0.00 0.00 76 1026.4
20180925141507 53 228 7.0 13.0 0.00 0.00 0.00 75 1026.4
20180925141007 54 230 3.0 13.0 0.00 0.00 0.00 75 1026.5
20180925140508 54 258 4.0 13.0 0.00 0.00 0.00 75 1026.5
20180925140008 54 264 3.0 8.0 0.00 0.00 0.00 75 1026.6
20180925135508 54 265 5.0 12.0 0.00 0.00 0.00 74 1026.8
20180925135008 54 261 4.0 13.0 0.00 0.00 0.00 73 1026.9
20180925134507 54 233 5.0 13.0 0.00 0.00 0.00 71 1027.0
20180925134008 54 249 7.0 18.0 0.00 0.00 0.00 70 1027.1
20180925133508 55 247 6.0 20.0 0.00 0.00 0.00 68 1027.0
20180925133008 55 240 10.0 20.0 0.00 0.00 0.00 67 1026.9
20180925132507 55 256 5.0 12.0 0.00 0.00 0.00 69 1026.8
20180925132008 55 253 3.0 13.0 0.00 0.00 0.00 70 1026.8
20180925131508 55 237 7.0 22.0 0.00 0.00 0.00 69 1027.0
20180925131008 55 244 7.0 22.0 0.00 0.00 0.00 69 1027.2
20180925130507 55 232 10.0 22.0 0.00 0.00 0.00 68 1027.3
20180925130009 55 241 9.0 22.0 0.00 0.00 0.00 68 1027.3
20180925125508 55 242 13.0 22.0 0.00 0.00 0.00 67 1027.4
20180925125007 55 247 9.0 20.0 0.00 0.00 0.00 67 1027.3
20180925124508 55 253 10.0 20.0 0.00 0.00 0.00 68 1027.2
20180925124008 55 232 8.0 20.0 0.00 0.00 0.00 67 1027.3
20180925123507 55 242 9.0 18.0 0.00 0.00 0.00 67 1027.2
20180925123009 55 233 7.0 16.0 0.00 0.00 0.00 68 1027.4
20180925122507 55 250 9.0 16.0 0.00 0.00 0.00 68 1027.4
20180925122008 55 228 9.0 20.0 0.00 0.00 0.00 68 1027.5
20180925121508 55 245 9.0 20.0 0.00 0.00 0.00 68 1027.7
20180925121008 55 252 9.0 23.0 0.00 0.00 0.00 67 1027.8
20180925120508 55 231 14.0 23.0 0.00 0.00 0.00 66 1028.0
20180925120008 55 240 9.0 23.0 0.00 0.00 0.00 68 1027.9
20180925115507 55 233 9.0 20.0 0.00 0.00 0.00 67 1028.0
20180925115008 55 233 10.0 18.0 0.00 0.00 0.00 66 1028.0
20180925114507 55 224 7.0 18.0 0.00 0.00 0.00 67 1028.1
20180925114008 54 245 7.0 18.0 0.00 0.00 0.00 66 1028.1
20180925113507 54 230 10.0 18.0 0.00 0.00 0.00 66 1028.2
20180925113008 55 244 11.0 18.0 0.00 0.00 0.00 63 1028.1
20180925112507 55 240 6.0 17.0 0.00 0.00 0.00 63 1028.3
20180925112007 55 237 9.0 17.0 0.00 0.00 0.00 63 1028.3
20180925111507 55 240 9.0 28.0 0.00 0.00 0.00 62 1028.4
20180925111008 54 238 10.0 28.0 0.00 0.00 0.00 60 1028.5
20180925110507 54 236 10.0 26.0 0.00 0.00 0.00 62 1028.5
20180925110009 54 234 9.0 21.0 0.00 0.00 0.00 65 1028.6
20180925105507 54 237 4.0 17.0 0.00 0.00 0.00 67 1028.6
20180925105008 54 217 9.0 17.0 0.00 0.00 0.00 68 1028.8
20180925104507 54 226 5.0 14.0 0.00 0.00 0.00 70 1028.9
20180925104007 54 229 6.0 16.0 0.00 0.00 0.00 70 1028.8
20180925103507 53 224 7.0 16.0 0.00 0.00 0.00 70 1028.9
20180925103009 53 226 6.0 15.0 0.00 0.00 0.00 71 1029.0
20180925102507 53 229 9.0 15.0 0.00 0.00 0.00 72 1029.2
20180925102008 53 242 5.0 12.0 0.00 0.00 0.00 73 1029.2
20180925101508 54 211 5.0 14.0 0.00 0.00 0.00 73 1029.3
20180925101008 54 224 5.0 16.0 0.00 0.00 0.00 74 1029.5
20180925100507 54 229 8.0 17.0 0.00 0.00 0.00 72 1029.6
20180925100007 54 248 7.0 17.0 0.00 0.00 0.00 72 1029.8
20180925095508 54 230 6.0 21.0 0.00 0.00 0.00 73 1029.8
20180925095007 54 213 7.0 21.0 0.00 0.00 0.00 74 1029.9
20180925094507 54 234 12.0 20.0 0.00 0.00 0.00 74 1029.9
20180925094008 53 236 10.0 20.0 0.00 0.00 0.00 74 1030.0
20180925093508 53 232 12.0 20.0 0.00 0.00 0.00 75 1030.1
20180925093008 53 234 12.0 17.0 0.00 0.00 0.00 75 1030.2
20180925092507 52 247 7.0 14.0 0.00 0.00 0.00 76 1030.3
20180925092007 52 258 6.0 13.0 0.00 0.00 0.00 76 1030.3
20180925091508 51 240 6.0 12.0 0.00 0.00 0.00 76 1030.4
20180925091008 51 223 6.0 12.0 0.00 0.00 0.00 77 1030.4
20180925090508 50 207 3.0 6.0 0.00 0.00 0.00 78 1030.4
20180925090009 49 267 2.0 3.0 0.00 0.00 0.00 78 1030.5
20180925085507 49 174 0.0 0.0 0.00 0.00 0.00 78 1030.5
20180925085007 49 174 0.0 0.0 0.00 0.00 0.00 78 1030.5
20180925084507 48 174 0.0 0.0 0.00 0.00 0.00 78 1030.6
20180925084008 48 111 0.0 0.0 0.00 0.00 0.00 78 1030.7
20180925083507 48 111 0.0 0.0 0.00 0.00 0.00 78 1030.7
20180925083008 48 111 0.0 0.0 0.00 0.00 0.00 78 1030.7
20180925082507 48 111 0.0 0.0 0.00 0.00 0.00 78 1030.8
20180925082008 48 111 0.0 0.0 0.00 0.00 0.00 78 1030.8
20180925081508 47 111 0.0 0.0 0.00 0.00 0.00 78 1030.8
20180925081009 47 111 0.0 0.0 0.00 0.00 0.00 78 1031.0
20180925080508 47 65 0.0 1.0 0.00 0.00 0.00 78 1031.0
20180925080008 47 80 0.0 1.0 0.00 0.00 0.00 78 1031.2
20180925075508 47 82 0.0 0.0 0.00 0.00 0.00 78 1031.1
20180925075009 47 82 0.0 0.0 0.00 0.00 0.00 78 1031.2
20180925074507 46 82 0.0 0.0 0.00 0.00 0.00 78 1031.3
20180925074008 46 82 0.0 3.0 0.00 0.00 0.00 78 1031.2
20180925073508 46 82 0.0 3.0 0.00 0.00 0.00 78 1031.3
20180925073008 46 82 1.0 8.0 0.00 0.00 0.00 78 1031.2
20180925072508 46 25 2.0 8.0 0.00 0.00 0.00 78 1031.1
20180925072008 46 62 3.0 8.0 0.00 0.00 0.00 78 1031.1
20180925071507 45 79 3.0 7.0 0.00 0.00 0.00 78 1031.1
20180925071008 45 83 3.0 7.0 0.00 0.00 0.00 78 1031.1
20180925070507 45 101 2.0 6.0 0.00 0.00 0.00 79 1031.1
20180925070010 45 98 2.0 6.0 0.00 0.00 0.00 79 1031.1
20180925065508 45 87 2.0 7.0 0.00 0.00 0.00 79 1031.3
20180925065009 45 202 3.0 7.0 0.00 0.00 0.00 79 1031.4
20180925064508 45 103 1.0 3.0 0.00 0.00 0.00 79 1031.5
20180925064008 45 87 2.0 3.0 0.00 0.00 0.00 79 1031.6
20180925063507 44 40 0.0 3.0 0.00 0.00 0.00 79 1031.6
20180925063008 44 43 2.0 3.0 0.00 0.00 0.00 79 1031.7
20180925062507 44 355 0.0 3.0 0.00 0.00 0.00 79 1031.8
20180925062007 44 4 1.0 3.0 0.00 0.00 0.00 79 1031.8
20180925061507 44 192 1.0 2.0 0.00 0.00 0.00 79 1031.7
20180925061008 44 192 0.0 2.0 0.00 0.00 0.00 79 1031.8
20180925060508 44 192 1.0 2.0 0.00 0.00 0.00 79 1031.7
20180925060007 44 192 0.0 3.0 0.00 0.00 0.00 79 1031.7
20180925055508 44 192 0.0 3.0 0.00 0.00 0.00 79 1031.8
20180925055008 44 355 0.0 3.0 0.00 0.00 0.00 79 1032.0
20180925054507 44 355 1.0 3.0 0.00 0.00 0.00 79 1032.0
20180925054008 44 355 1.0 3.0 0.00 0.00 0.00 79 1032.1
20180925053508 44 355 1.0 3.0 0.00 0.00 0.00 79 1032.2
20180925053008 44 355 1.0 3.0 0.00 0.00 0.00 79 1032.1
20180925052507 43 311 1.0 3.0 0.00 0.00 0.00 79 1032.1
20180925052008 43 275 0.0 3.0 0.00 0.00 0.00 79 1032.1
20180925051508 43 275 1.0 3.0 0.00 0.00 0.00 79 1032.1
20180925051008 43 271 0.0 0.0 0.00 0.00 0.00 79 1032.1
20180925050508 43 271 0.0 0.0 0.00 0.00 0.00 79 1032.1
20180925050009 43 271 0.0 0.0 0.00 0.00 0.00 79 1032.1
20180925045508 44 271 0.0 0.0 0.00 0.00 0.00 79 1032.1
20180925045008 44 271 0.0 1.0 0.00 0.00 0.00 79 1032.2
20180925044508 44 271 0.0 3.0 0.00 0.00 0.00 79 1032.2
20180925044008 44 271 2.0 3.0 0.00 0.00 0.00 79 1032.3
20180925043508 44 330 1.0 2.0 0.00 0.00 0.00 79 1032.3
20180925043008 44 330 0.0 3.0 0.00 0.00 0.00 79 1032.5
20180925042508 44 330 1.0 3.0 0.00 0.00 0.00 79 1032.5
20180925042008 44 330 2.0 3.0 0.00 0.00 0.00 79 1032.5
20180925041507 44 0 0.0 0.0 0.00 0.00 0.00 78 1032.5
20180925041008 44 0 0.0 0.0 0.00 0.00 0.00 78 1032.6
20180925040508 44 0 0.0 0.0 0.00 0.00 0.00 78 1032.6
20180925040008 44 0 0.0 1.0 0.00 0.00 0.00 78 1032.5
20180925035508 44 0 0.0 3.0 0.00 0.00 0.00 78 1032.7
20180925035007 44 0 1.0 3.0 0.00 0.00 0.00 78 1032.7
20180925034508 44 0 1.0 3.0 0.00 0.00 0.00 78 1032.7
20180925034009 44 0 1.0 3.0 0.00 0.00 0.00 78 1032.6
20180925033508 44 0 0.0 0.0 0.00 0.00 0.00 78 1032.7
20180925033008 44 0 0.0 3.0 0.00 0.00 0.00 78 1032.7
20180925032508 44 0 1.0 3.0 0.00 0.00 0.00 78 1032.8
20180925032008 44 0 2.0 3.0 0.00 0.00 0.00 78 1032.9
20180925031507 44 0 0.0 0.0 0.00 0.00 0.00 78 1033.0
20180925031008 44 0 0.0 1.0 0.00 0.00 0.00 78 1033.0
20180925030507 44 0 0.0 3.0 0.00 0.00 0.00 78 1033.1
20180925030009 44 0 2.0 3.0 0.00 0.00 0.00 78 1033.3
20180925025507 44 0 2.0 3.0 0.00 0.00 0.00 78 1033.3
20180925025008 44 0 3.0 3.0 0.00 0.00 0.00 78 1033.4
20180925024508 44 0 0.0 0.0 0.00 0.00 0.00 78 1033.4
20180925024008 44 0 0.0 0.0 0.00 0.00 0.00 78 1033.5
20180925023508 44 0 0.0 0.0 0.00 0.00 0.00 78 1033.5
20180925023008 44 0 0.0 0.0 0.00 0.00 0.00 78 1033.5
20180925022509 44 0 0.0 1.0 0.00 0.00 0.00 78 1033.6
20180925022009 44 0 0.0 1.0 0.00 0.00 0.00 78 1033.5
20180925021508 44 0 0.0 2.0 0.00 0.00 0.00 77 1033.7
20180925021008 45 0 0.0 2.0 0.00 0.00 0.00 78 1033.7
20180925020508 45 0 1.0 2.0 0.00 0.00 0.00 78 1033.7
20180925020008 45 0 0.0 2.0 0.00 0.00 0.00 78 1033.8
20180925015508 45 0 0.0 0.0 0.00 0.00 0.00 77 1033.9
20180925015009 45 0 0.0 0.0 0.00 0.00 0.00 77 1033.9
20180925014507 45 0 0.0 0.0 0.00 0.00 0.00 77 1033.9
20180925014008 45 0 0.0 0.0 0.00 0.00 0.00 77 1033.9
20180925013508 45 0 0.0 0.0 0.00 0.00 0.00 77 1033.8
20180925013007 45 0 0.0 0.0 0.00 0.00 0.00 77 1033.9
20180925012508 45 0 0.0 0.0 0.00 0.00 0.00 77 1033.9
20180925012009 45 0 0.0 3.0 0.00 0.00 0.00 77 1033.9
20180925011507 45 0 0.0 3.0 0.00 0.00 0.00 77 1033.9
20180925011008 45 0 0.0 2.0 0.00 0.00 0.00 77 1033.9
20180925010507 46 0 0.0 3.0 0.00 0.00 0.00 77 1034.0
20180925010009 46 0 1.0 3.0 0.00 0.00 0.00 77 1034.1
20180925005508 45 0 2.0 3.0 0.00 0.00 0.00 77 1034.0
20180925005008 45 0 1.0 3.0 0.00 0.00 0.00 77 1034.0
20180925004508 45 0 2.0 3.0 0.00 0.00 0.00 77 1034.1
20180925004009 45 0 2.0 3.0 0.00 0.00 0.00 77 1034.1
20180925003507 45 0 0.0 3.0 0.00 0.00 0.00 77 1034.1
20180925003009 45 0 0.0 3.0 0.00 0.00 0.00 77 1034.2
20180925002507 46 0 2.0 3.0 0.00 0.00 0.00 77 1034.2
20180925002008 46 0 0.0 3.0 0.00 0.00 0.00 77 1034.1
20180925001507 46 0 2.0 3.0 0.00 0.00 0.00 77 1034.2
20180925001008 46 7 2.0 3.0 0.00 0.00 0.00 77 1034.1
20180925000507 46 154 2.0 3.0 0.00 0.00 0.00 77 1034.0
20180925000007 46 153 0.0 3.0 0.00 0.00 0.00 77 1034.2
20180924235507 47 153 1.0 3.0 0.00 0.00 0.00 77 1034.2
20180924235008 47 153 2.0 3.0 0.00 0.00 0.00 77 1034.2
20180924234508 47 153 2.0 3.0 0.00 0.00 0.00 77 1034.2
20180924234007 47 153 1.0 3.0 0.00 0.00 0.00 77 1034.2
20180924233507 47 153 2.0 3.0 0.00 0.00 0.00 77 1034.2
20180924233008 47 153 1.0 3.0 0.00 0.00 0.00 77 1034.2
20180924232507 47 153 1.0 3.0 0.00 0.00 0.00 77 1034.2
20180924232008 47 153 1.0 3.0 0.00 0.00 0.00 77 1034.3
20180924231508 47 153 1.0 3.0 0.00 0.00 0.00 77 1034.4
20180924231008 47 153 0.0 5.0 0.00 0.00 0.00 77 1034.5
20180924230508 47 153 3.0 5.0 0.00 0.00 0.00 77 1034.4
20180924230009 47 325 0.0 2.0 0.00 0.00 0.00 77 1034.4
20180924225507 47 325 1.0 3.0 0.00 0.00 0.00 77 1034.4
20180924225008 47 325 2.0 3.0 0.00 0.00 0.00 77 1034.4
20180924224507 47 284 0.0 0.0 0.00 0.00 0.00 77 1034.3
20180924224008 47 284 0.0 0.0 0.00 0.00 0.00 77 1034.4
20180924223508 48 284 0.0 0.0 0.00 0.00 0.00 78 1034.3
20180924223008 48 284 0.0 0.0 0.00 0.00 0.00 78 1034.4
20180924222507 48 284 0.0 0.0 0.00 0.00 0.00 78 1034.4
20180924222008 48 284 0.0 2.0 0.00 0.00 0.00 78 1034.5
20180924221507 48 284 0.0 2.0 0.00 0.00 0.00 78 1034.5
20180924221008 48 284 1.0 3.0 0.00 0.00 0.00 78 1034.5
20180924220508 48 284 1.0 3.0 0.00 0.00 0.00 78 1034.5
20180924220008 49 284 1.0 2.0 0.00 0.00 0.00 78 1034.5
20180924215507 49 284 1.0 2.0 0.00 0.00 0.00 78 1034.6
20180924215007 49 284 1.0 2.0 0.00 0.00 0.00 77 1034.6
20180924214507 49 284 1.0 2.0 0.00 0.00 0.00 78 1034.6
20180924214008 49 303 0.0 2.0 0.00 0.00 0.00 77 1034.6
20180924213507 49 303 1.0 3.0 0.00 0.00 0.00 77 1034.5
20180924213008 49 281 0.0 3.0 0.00 0.00 0.00 77 1034.5
20180924212507 49 281 1.0 3.0 0.00 0.00 0.00 78 1034.5
20180924212008 49 291 2.0 3.0 0.00 0.00 0.00 78 1034.5
20180924211507 49 289 1.0 3.0 0.00 0.00 0.00 77 1034.5
20180924211008 49 280 2.0 3.0 0.00 0.00 0.00 77 1034.5
20180924210507 49 300 2.0 3.0 0.00 0.00 0.00 77 1034.5
20180924210009 49 309 2.0 3.0 0.00 0.00 0.00 77 1034.5
20180924205508 49 275 2.0 3.0 0.00 0.00 0.00 77 1034.5
20180924205008 49 271 1.0 3.0 0.00 0.00 0.00 77 1034.5
20180924204507 50 271 1.0 2.0 0.00 0.00 0.00 77 1034.5
20180924204008 50 271 0.0 0.0 0.00 0.00 0.00 77 1034.5
20180924203507 50 271 0.0 0.0 0.00 0.00 0.00 77 1034.5
20180924203008 50 271 0.0 0.0 0.00 0.00 0.00 77 1034.5
20180924202507 50 271 0.0 2.0 0.00 0.00 0.00 77 1034.6
20180924202008 50 271 0.0 3.0 0.00 0.00 0.00 77 1034.5
20180924201508 50 271 1.0 3.0 0.00 0.00 0.00 77 1034.5
20180924201008 50 271 1.0 9.0 0.00 0.00 0.00 76 1034.5
20180924200508 50 277 2.0 9.0 0.00 0.00 0.00 76 1034.4
20180924200008 50 257 5.0 9.0 0.00 0.00 0.00 76 1034.3
20180924195507 50 278 3.0 12.0 0.00 0.00 0.00 77 1034.4
20180924195007 50 273 3.0 12.0 0.00 0.00 0.00 77 1034.4
20180924194507 50 268 3.0 9.0 0.00 0.00 0.00 77 1034.4
20180924194007 50 279 3.0 9.0 0.00 0.00 0.00 77 1034.5
20180924193508 50 280 4.0 9.0 0.00 0.00 0.00 77 1034.4
20180924193007 50 285 3.0 8.0 0.00 0.00 0.00 77 1034.5
20180924192507 50 296 2.0 7.0 0.00 0.00 0.00 77 1034.4
20180924192008 50 293 3.0 7.0 0.00 0.00 0.00 77 1034.4
20180924191507 50 301 2.0 7.0 0.00 0.00 0.00 77 1034.3
20180924191007 50 323 2.0 5.0 0.00 0.00 0.00 77 1034.4
20180924190508 50 305 2.0 3.0 0.00 0.00 0.00 77 1034.5
20180924190008 50 305 2.0 3.0 0.00 0.00 0.00 77 1034.5
20180924185507 51 304 2.0 3.0 0.00 0.00 0.00 77 1034.4
20180924185008 51 288 2.0 3.0 0.00 0.00 0.00 77 1034.5
20180924184508 51 261 2.0 6.0 0.00 0.00 0.00 77 1034.5
20180924184008 51 260 3.0 6.0 0.00 0.00 0.00 76 1034.5
20180924183507 51 244 2.0 6.0 0.00 0.00 0.00 76 1034.4
20180924183008 52 252 2.0 8.0 0.00 0.00 0.00 76 1034.4
20180924182508 52 275 3.0 10.0 0.00 0.00 0.00 76 1034.3
20180924182008 52 252 3.0 10.0 0.00 0.00 0.00 76 1034.4
20180924181507 52 276 3.0 10.0 0.00 0.00 0.00 76 1034.4
20180924181008 52 291 5.0 12.0 0.00 0.00 0.00 76 1034.4
20180924180507 53 276 6.0 12.0 0.00 0.00 0.00 75 1034.4
20180924180008 53 267 3.0 10.0 0.00 0.00 0.00 75 1034.3
20180924175507 53 261 6.0 10.0 0.00 0.00 0.00 74 1034.3
20180924175008 53 269 4.0 8.0 0.00 0.00 0.00 73 1034.3
20180924174507 53 243 2.0 8.0 0.00 0.00 0.00 73 1034.2
20180924174008 54 278 4.0 12.0 0.00 0.00 0.00 73 1034.2
20180924173508 54 273 4.0 12.0 0.00 0.00 0.00 72 1034.2
20180924173008 54 255 4.0 12.0 0.00 0.00 0.00 72 1034.2
20180924172507 54 254 6.0 10.0 0.00 0.00 0.00 72 1034.1
20180924172008 54 251 3.0 10.0 0.00 0.00 0.00 72 1034.0
20180924171507 54 264 5.0 10.0 0.00 0.00 0.00 71 1034.0
20180924171008 54 258 5.0 9.0 0.00 0.00 0.00 71 1034.0
20180924170507 54 252 5.0 12.0 0.00 0.00 0.00 71 1033.9
20180924170009 55 265 5.0 14.0 0.00 0.00 0.00 70 1033.9
20180924165508 55 264 5.0 14.0 0.00 0.00 0.00 69 1033.9
20180924165008 55 247 7.0 14.0 0.00 0.00 0.00 69 1033.9
20180924164507 55 249 6.0 13.0 0.00 0.00 0.00 69 1033.8
20180924164008 55 259 6.0 12.0 0.00 0.00 0.00 68 1033.8
20180924163508 55 268 6.0 14.0 0.00 0.00 0.00 69 1033.8
20180924163008 55 257 6.0 14.0 0.00 0.00 0.00 70 1033.8
20180924162507 55 266 6.0 14.0 0.00 0.00 0.00 69 1033.7
20180924162008 55 247 6.0 10.0 0.00 0.00 0.00 68 1033.7
20180924161507 55 260 5.0 9.0 0.00 0.00 0.00 67 1033.7
20180924161008 55 248 2.0 8.0 0.00 0.00 0.00 67 1033.6
20180924160507 56 257 4.0 12.0 0.00 0.00 0.00 67 1033.7
20180924160007 56 258 7.0 12.0 0.00 0.00 0.00 66 1033.8
20180924155508 56 240 4.0 12.0 0.00 0.00 0.00 66 1033.9
20180924155008 56 255 5.0 14.0 0.00 0.00 0.00 65 1033.9
20180924154507 57 265 6.0 14.0 0.00 0.00 0.00 65 1033.8
20180924154008 57 256 9.0 14.0 0.00 0.00 0.00 64 1033.8
20180924153507 57 251 7.0 12.0 0.00 0.00 0.00 63 1033.8
20180924153008 57 245 6.0 12.0 0.00 0.00 0.00 64 1033.9
20180924152507 57 257 7.0 16.0 0.00 0.00 0.00 66 1033.9
20180924152008 56 244 8.0 16.0 0.00 0.00 0.00 65 1034.0
20180924151507 56 256 7.0 16.0 0.00 0.00 0.00 64 1034.1
20180924151008 57 267 9.0 16.0 0.00 0.00 0.00 64 1034.1
20180924150507 57 252 6.0 14.0 0.00 0.00 0.00 64 1034.1
20180924150009 57 267 7.0 18.0 0.00 0.00 0.00 65 1034.2
20180924145507 56 264 9.0 18.0 0.00 0.00 0.00 64 1034.2
20180924145008 57 264 7.0 15.0 0.00 0.00 0.00 62 1034.3